IST,Max TemperatureF,Mean TemperatureF,Min TemperatureF,Max Dew PointF,MeanDew PointF,Min DewpointF,Max Humidity, Mean Humidity, Min Humidity, Max Sea Level PressureIn, Mean Sea Level PressureIn, Min Sea Level PressureIn, Max VisibilityMiles, Mean VisibilityMiles, Min VisibilityMiles, Max Wind SpeedMPH, Mean Wind SpeedMPH, Max Gust SpeedMPH,PrecipitationIn, CloudCover, Events, WindDirDegrees
2013-10-1,89,84,80,79,76,73,89,79,63,29.77,29.71,29.65,2,2,1,14,9,22,0.08,4,Rain,252
2013-10-2,90,84,79,77,75,72,89,76,55,29.78,29.73,29.65,6,2,1,15,7,26,0.00,4,,197
2013-10-3,92,84,77,77,76,73,89,76,55,29.76,29.71,29.62,6,2,1,14,8,23,0.00,3,,152
2013-10-4,90,84,78,77,76,75,89,77,53,29.74,29.70,29.62,6,2,1,13,7,22,0.00,5,,153
2013-10-5,89,84,79,77,76,74,89,81,64,29.77,29.71,29.65,3,2,1,13,6,20,0.00,6,,170
2013-10-6,89,84,80,78,76,73,89,79,57,29.83,29.75,29.71,4,2,1,15,6,,0.00,3,,246
2013-10-7,86,82,77,78,75,73,94,81,68,29.89,29.81,29.77,3,2,1,12,4,,0.00,5,Rain,315
2013-10-8,88,82,77,79,75,73,92,79,65,29.92,29.84,29.76,2,2,1,14,4,22,0.00,3,Rain,290
2013-10-9,88,82,77,76,74,72,84,76,61,29.86,29.81,29.74,3,2,1,14,8,21,0.00,2,,271
2013-10-10,88,82,77,77,75,72,89,77,54,29.89,29.82,29.77,3,2,1,14,6,22,0.00,4,Rain,192
2013-10-11,87,80,74,77,75,73,94,83,63,29.89,29.82,29.77,3,2,1,13,5,,0.02,5,Rain,191
2013-10-12,86,80,75,77,76,73,100,86,72,29.80,29.76,29.68,2,2,1,12,4,,0.16,4,Rain-Thunderstorm,171
2013-10-13,88,82,75,79,77,75,95,82,64,29.80,29.75,29.68,5,2,1,14,5,21,0.00,2,Rain,254
2013-10-14,87,82,78,79,77,72,89,82,65,29.86,29.78,29.74,3,2,1,13,6,20,0.43,3,Rain-Thunderstorm,257
2013-10-15,86,82,78,79,78,73,94,86,70,29.89,29.82,29.77,2,1,1,10,4,,0.79,5,Rain,75
2013-10-16,90,84,77,79,77,75,91,80,64,29.89,29.81,29.74,2,2,1,14,5,,0.08,6,Rain-Thunderstorm,102
2013-10-17,91,84,77,80,77,73,94,77,55,29.86,29.81,29.74,2,2,1,8,4,,0.00,5,Rain,31
2013-10-18,95,88,81,79,73,63,85,62,32,29.89,29.82,29.77,6,2,1,12,4,,0.00,4,,49
2013-10-19,97,86,75,79,72,59,89,64,19,29.89,29.83,29.77,3,2,1,12,4,,0.00,1,,16
2013-10-20,95,86,76,78,75,64,88,67,36,29.89,29.81,29.74,2,2,1,12,3,,0.00,3,,43
2013-10-21,95,84,74,75,70,61,86,60,32,29.81,29.75,29.68,3,2,1,10,5,,0.00,2,,26
2013-10-22,96,82,69,73,65,54,87,50,21,29.83,29.75,29.68,3,2,1,9,4,,0.00,3,,34
2013-10-23,94,84,73,74,65,59,64,48,30,29.83,29.76,29.68,4,2,1,10,6,,0.00,2,,28
2013-10-24,93,82,72,74,67,59,84,54,38,29.80,29.74,29.68,3,2,1,10,7,,0.00,3,,21
2013-10-25,93,82,72,77,72,66,88,62,34,29.77,29.71,29.62,2,2,1,13,4,,0.00,2,,323
2013-10-26,90,83,76,79,76,73,88,76,57,29.80,29.74,29.68,2,2,1,14,4,,0.00,2,,256
2013-10-27,90,84,79,81,78,77,89,81,60,29.86,29.80,29.74,2,2,1,15,5,,0.00,3,,219
2013-10-28,89,84,80,79,78,75,89,80,61,29.92,29.84,29.80,2,2,1,12,5,,0.00,2,,231
2013-10-29,91,84,76,79,73,59,94,69,42,29.95,29.87,29.80,2,2,1,14,5,,0.00,1,,322
2013-10-30,94,82,69,75,68,59,82,55,36,29.98,29.89,29.83,2,2,1,10,4,,0.00,2,,33
2013-10-31,94,82,71,73,69,63,89,60,36,29.98,29.89,29.83,2,2,1,13,3,,0.00,2,,343